Regional Weather Roundup
Issued by NWS

Home | Current Version | Previous Version | Graphics & Text | Print | Product List | Glossary On
Versions: 1 2 3 4 5 6 7 8 9 10 11 12 13 14 15 16 17 18 19 20 21 22 23 24 25 26 27 28 29 30 31 32 33 34 35 36 37 38 39 40 41 42 43 44 45 46 47 48 49 50
000
ASUS43 KLMK 261710
RWRKY
KENTUCKY REGIONAL WEATHER ROUNDUP
NATIONAL WEATHER SERVICE LOUISVILLE KY
1200 PM EST THU FEB 26 2015

NOTE "FAIR" INDICATES FEW OR NO CLOUDS BELOW 12,000 FEET
WITH NO SIGNIFICANT WEATHER AND/OR OBSTRUCTIONS TO VISIBILITY.

KYZ001>023-026-027-061>063-070>075-261800-
WESTERN AND SOUTH CENTRAL KENTUCKY

CITY           SKY/WX    TMP DP  RH WIND       PRES   REMARKS
PADUCAH        CLOUDY    32  22  66 N14       30.11R WCI  22
HENDERSON      CLOUDY    30  19  64 NW10      30.11R WCI  21
OWENSBORO      MOSUNNY   33  19  56 NW15      30.09R WCI  23
HOPKINSVILLE   PTSUNNY   33  23  67 NW8       30.06R WCI  26
BOWLING GREEN  SUNNY     39  20  46 VRB6      30.04R WCI  35
GLASGOW        MOSUNNY   37  21  51 CALM      30.02R
$$

KYZ024-025-028>034-038-045-046-053-261800-
NORTH CENTRAL KENTUCKY

CITY           SKY/WX    TMP DP  RH WIND       PRES   REMARKS
LOUISVILLE/SDF MOSUNNY   31  16  54 N9        30.06R WCI  23
LOUISVILLE/LOU SUNNY     28  15  58 NW7       30.06R WCI  21
FORT KNOX      SUNNY     31  17  55 VRB5      30.03R WCI  27
$$

KYZ035>037-039>044-047>052-055>060-089>105-261800-
NORTHEAST KENTUCKY

CITY           SKY/WX    TMP DP  RH WIND       PRES   REMARKS
LEXINGTON      CLOUDY    28  16  60 N10       30.02R WCI  19
COVINGTON      PTSUNNY   21  10  62 N12       30.05R WCI   9
FRANKFORT      CLOUDY    30  15  53 N6        30.02R WCI  24
$$

KYZ054-064>069-076>088-106>120-261800-
SOUTHEAST KENTUCKY

CITY           SKY/WX    TMP DP  RH WIND       PRES   REMARKS
JACKSON        MOSUNNY   35  21  56 VRB6      29.96R WCI  30
LONDON         PTSUNNY   35  22  58 VRB3      29.98R
SOMERSET       MOSUNNY   32  23  69 CALM      30.02S
MIDDLESBORO    CLOUDY    32  28  82 NW13      29.98R WCI  23
MONTICELLO     SUNNY     37  25  62 W5        30.03S WCI  33
$$



USA.gov is the U.S. government's official web portal to all federal, state and local government web resources and services.